DateTime,F1_A11,F1_S11,BsB_S11,BsG_S11,BsR_S11,BbsB_S11,BbsG_S11,BbsR_S11,BaB_A11,BaG_A11,BaR_A11,T_S11,U_S11,P_S11,T1_A11
2016-10-16T00:00:00Z,0000380,20000600,,,,,,,,,,27.2,01.3,0664.0,34.7
2016-10-16T00:01:00Z,0000380,20000600,,,,,,,,,,27.1,01.3,0664.0,34.7
2016-10-16T00:02:00Z,0000380,20000600,,,,,,,,,,27.0,01.3,0664.0,34.7
2016-10-16T00:03:00Z,0000380,60000600,,,,,,,,,,27.1,01.3,0664.0,34.7
2016-10-16T00:04:00Z,0000380,41000600,0004.28,0002.66,0001.55,0000.51,-000.10,0000.75,0000.07,0000.33,0000.28,27.0,01.3,0664.9,34.7
2016-10-16T00:05:00Z,0000380,00000600,0004.06,0001.98,0001.15,0000.35,0000.19,0000.13,0000.31,0000.25,0000.30,27.0,01.5,0665.0,34.7
2016-10-16T00:06:00Z,0000380,00000600,0003.59,0002.51,0001.80,-000.02,0000.25,0000.59,0000.21,0000.15,0000.17,27.0,01.4,0665.0,34.7
2016-10-16T00:07:00Z,0000380,00000600,0003.01,0002.09,0001.21,-000.06,0000.35,0000.03,0000.38,0000.14,-000.07,27.0,01.5,0665.0,34.7
2016-10-16T00:08:00Z,0000380,01000600,0003.40,0001.78,0001.58,0001.11,-000.06,0000.38,0000.15,0000.32,0000.40,27.0,01.5,0665.0,34.7
2016-10-16T00:09:00Z,0000380,00000600,0002.86,0002.15,0001.08,-000.30,0000.60,0000.14,0000.22,0000.17,0000.12,27.0,01.5,0664.9,34.7
2016-10-16T00:10:00Z,0000380,00000600,0004.26,0001.96,0001.53,0000.49,0000.11,0000.51,0000.27,0000.11,0000.11,26.9,01.5,0665.0,34.7
2016-10-16T00:11:00Z,0000380,00000600,0002.98,0002.25,0001.57,0000.41,0000.36,0000.37,0000.29,0000.12,-000.01,26.9,01.5,0665.0,34.7
2016-10-16T00:12:00Z,0000380,00000600,0004.40,0002.10,0001.42,0000.73,0000.21,0000.16,0000.24,0000.20,0000.06,26.8,01.5,0665.1,34.7
2016-10-16T00:13:00Z,0000380,01000600,0002.38,0001.67,0001.18,0000.60,0000.30,0000.37,-000.12,0000.10,-000.01,26.8,01.4,0665.1,34.7
2016-10-16T00:14:00Z,0000380,00000600,0002.97,0002.57,0001.34,0000.83,-000.06,0000.35,0000.29,0000.03,0000.14,26.8,01.4,0665.0,34.7
2016-10-16T00:15:00Z,0000380,00000600,0003.49,0002.28,0001.32,0000.10,-000.16,0000.14,0000.11,0000.25,0000.02,26.8,01.3,0665.0,34.7
2016-10-16T00:16:00Z,0000380,00000600,0003.39,0002.26,0000.94,0000.18,0000.11,-000.06,0000.17,0000.11,0000.43,26.8,01.4,0665.1,34.7
2016-10-16T00:17:00Z,0000380,01000600,0003.24,0002.44,0001.75,0000.81,-000.21,0000.78,0000.19,0000.20,-000.54,26.7,01.3,0665.0,34.7
2016-10-16T00:18:00Z,0000380,01000600,0004.72,0001.99,0001.71,0000.21,0000.30,0000.70,0000.41,0000.11,0000.72,26.7,01.3,0665.0,34.7
2016-10-16T00:19:00Z,0000380,01000600,0002.99,0002.55,0000.71,-000.02,-000.08,0000.11,0000.04,0000.02,-000.34,26.7,01.3,0665.1,34.7
2016-10-16T00:20:00Z,0000380,01000600,0003.23,0001.63,0001.52,0000.27,0000.17,0000.30,0000.39,0000.24,0000.19,26.7,01.2,0665.0,34.7
2016-10-16T00:21:00Z,0000380,01000600,0003.39,0002.72,0001.23,0000.38,-000.16,0000.43,0000.30,0000.16,0000.34,26.6,01.3,0665.1,34.7
2016-10-16T00:22:00Z,0000380,01000600,0002.64,0002.80,0001.03,-000.06,0000.09,0000.18,0000.16,0000.20,-000.23,26.6,01.2,0665.1,34.7
2016-10-16T00:23:00Z,0000380,01000600,0003.48,0002.46,0001.25,0000.21,0000.43,0000.13,0000.12,0000.40,0000.51,26.6,01.2,0665.1,34.7
2016-10-16T00:24:00Z,0000380,01000600,0003.62,0001.81,0001.14,0000.25,0000.33,-000.02,0000.40,0000.07,0000.22,26.5,01.3,0665.1,34.7
2016-10-16T00:25:00Z,0000380,01000600,0004.57,0002.18,0001.17,0000.32,-000.33,0000.54,0000.31,0000.58,0000.19,26.5,01.4,0665.1,34.7
2016-10-16T00:26:00Z,0000380,01000600,0003.27,0001.49,0001.41,0000.64,-000.14,0000.22,-000.00,-000.03,0000.01,26.5,01.4,0665.1,34.7
2016-10-16T00:27:00Z,0000380,01000600,0003.38,0002.51,0001.20,0000.62,0000.63,0000.22,0000.19,0000.10,0000.34,26.5,01.3,0665.1,34.7
2016-10-16T00:28:00Z,0000380,01000600,0002.80,0002.84,0001.58,-000.13,0000.27,0000.25,0000.45,0000.23,0000.05,26.5,01.3,0665.1,34.7
2016-10-16T00:29:00Z,0000380,01000600,0003.88,0001.76,0001.17,-000.65,0000.43,0000.48,0000.04,0000.18,0000.48,26.5,01.2,0665.1,34.7
2016-10-16T00:30:00Z,0000380,01000600,0003.22,0002.48,0000.98,0000.30,0000.21,0000.45,0000.36,0000.41,-000.03,26.5,01.3,0665.1,34.7
2016-10-16T00:31:00Z,0000380,01000600,0003.57,0002.66,0001.34,0000.10,0000.09,0000.25,0000.35,-000.11,0000.36,26.5,01.3,0665.0,34.7
2016-10-16T00:32:00Z,0000380,00000600,0003.50,0001.87,0001.00,0000.17,0000.28,0000.19,0000.23,0000.45,0000.29,26.5,01.4,0664.9,34.7
2016-10-16T00:33:00Z,0000380,00000600,0003.90,0002.22,0001.19,0000.03,0000.51,0000.18,-000.02,0000.19,-000.05,26.5,01.5,0664.9,34.7
2016-10-16T00:34:00Z,0000380,00000600,0001.95,0002.17,0001.39,0000.41,0000.02,0000.46,0000.34,0000.45,0000.31,26.5,01.6,0664.9,34.7
2016-10-16T00:35:00Z,0000380,00000600,0002.16,0001.71,0000.88,0000.78,0000.47,0000.56,0000.40,0000.14,0000.52,26.5,01.6,0664.9,34.7
2016-10-16T00:36:00Z,0000380,00000600,0002.60,0002.37,0001.79,0000.05,0000.33,0000.41,0000.30,0000.17,0000.13,26.5,01.6,0664.9,34.7
2016-10-16T00:37:00Z,0000380,00000600,0003.49,0002.05,0001.43,0000.00,0000.30,0000.25,0000.16,0000.38,-000.34,26.5,01.6,0664.9,34.7
2016-10-16T00:38:00Z,0000380,00000600,0004.08,0001.94,0001.22,0000.10,-000.17,0000.37,0000.27,0000.16,0000.38,26.5,01.6,0664.9,34.7
2016-10-16T00:39:00Z,0000380,00000600,0004.08,0002.31,0001.30,0000.59,0000.27,0000.27,0000.20,0000.17,-000.41,26.5,01.6,0664.9,34.7
2016-10-16T00:40:00Z,0000380,00000600,0003.96,0001.64,0001.68,0000.99,0000.06,0000.19,0000.15,0000.13,0000.79,26.5,01.7,0664.8,34.7
2016-10-16T00:41:00Z,0000380,00000600,0004.09,0001.47,0001.15,0000.49,-000.27,0000.08,0000.23,0000.13,-000.25,26.5,01.7,0664.8,34.7
2016-10-16T00:42:00Z,0000380,00000600,0003.02,0002.03,0001.08,0000.43,0000.21,0000.14,0000.16,0000.19,0000.17,26.5,01.7,0664.8,34.7
2016-10-16T00:43:00Z,0000380,00000600,0003.24,0002.18,0000.94,0000.30,0000.62,0000.08,0000.40,0000.25,0000.29,26.5,01.7,0664.8,34.7
2016-10-16T00:44:00Z,0000380,00000600,0003.67,0002.17,0001.75,-000.13,0000.06,-000.03,0000.06,0000.34,0000.36,26.5,01.7,0664.8,34.7
2016-10-16T00:45:00Z,0000380,00000600,0003.54,0001.99,0001.46,-000.14,0000.19,0000.25,0000.22,0000.11,0000.06,26.5,01.7,0664.7,34.7
2016-10-16T00:46:00Z,0000380,00000600,0003.44,0002.91,0002.03,0000.52,-000.02,0000.14,0000.40,0000.36,0000.08,26.5,01.7,0664.8,34.7
2016-10-16T00:47:00Z,0000380,00000600,0002.63,0002.18,0001.55,0000.57,0000.24,0000.27,0000.16,0000.16,0000.05,26.5,01.7,0664.7,34.7
2016-10-16T00:48:00Z,0000380,00000600,0003.90,0001.51,0001.63,0000.45,0000.25,0000.37,0000.31,0000.22,0000.47,26.5,01.8,0664.7,34.7
2016-10-16T00:49:00Z,0000380,00000600,0003.79,0002.37,0001.45,0000.33,0000.35,0000.40,0000.20,0000.09,0000.04,26.5,01.8,0664.7,34.7
2016-10-16T00:50:00Z,0000380,00000600,0004.41,0002.15,0001.32,0000.16,0000.11,0000.24,0000.19,0000.19,0000.29,26.5,01.7,0664.7,34.7
2016-10-16T00:51:00Z,0000380,00000600,0003.80,0002.08,0001.02,0000.99,-000.44,0000.30,0000.25,0000.30,0000.05,26.4,01.8,0664.8,34.7
2016-10-16T00:52:00Z,0000380,00000600,0003.35,0001.72,0001.93,0000.70,0000.32,0000.43,0000.27,-000.06,0000.04,26.4,01.8,0664.8,34.7
2016-10-16T00:53:00Z,0000380,00000600,0003.12,0001.72,0001.35,0000.65,-000.30,0000.18,0000.18,0000.34,0000.26,26.5,01.8,0664.7,34.7
2016-10-16T00:54:00Z,0000380,00000600,0003.78,0002.25,0001.05,-000.16,0000.00,-000.10,0000.16,0000.15,0000.12,26.4,01.7,0664.8,34.7
2016-10-16T00:55:00Z,0000380,00000600,0003.67,0002.15,0001.44,0000.21,0000.03,0000.27,0000.28,0000.23,0000.23,26.4,01.8,0664.8,34.7
2016-10-16T00:56:00Z,0000380,00000600,0003.52,0001.76,0000.81,0000.94,0000.02,-000.02,0000.33,0000.14,0000.13,26.4,01.8,0664.7,34.7
2016-10-16T00:57:00Z,0000380,40000600,,,,,,,,,,,,0664.9,34.7
2016-10-16T00:58:00Z,0000380,60000600,,,,,,,,,,26.3,01.7,0663.8,34.7
2016-10-16T00:59:00Z,0000380,20000600,,,,,,,,,,26.3,01.7,0663.7,34.7
2016-10-16T01:00:00Z,0000380,20000600,,,,,,,,,,26.3,01.7,0663.7,34.7
2016-10-16T01:01:00Z,0000380,20000600,,,,,,,,,,26.3,01.7,0663.7,34.7
2016-10-16T01:02:00Z,0000380,20000600,,,,,,,,,,26.3,01.7,0663.7,34.7
2016-10-16T01:03:00Z,0000380,60000600,,,,,,,,,,26.3,01.7,0663.7,34.7
2016-10-16T01:04:00Z,0000380,40000600,0003.56,0002.59,0001.62,0000.75,-000.03,0000.40,0000.25,0000.27,0000.30,26.5,02.0,0664.6,34.7
2016-10-16T01:05:00Z,0000380,00000600,0003.83,0001.99,0001.12,-000.65,0000.41,0000.24,0000.04,0000.15,0000.10,26.5,01.8,0664.7,34.7
2016-10-16T01:06:00Z,0000380,00000600,0003.96,0002.17,0001.54,0001.15,0000.30,0000.24,0000.26,0000.19,0000.09,26.5,01.8,0664.7,34.7
2016-10-16T01:07:00Z,0000380,00000600,0003.90,0002.33,0001.14,0000.03,-000.03,-000.25,0000.23,0000.38,-000.12,26.5,01.9,0664.7,34.7
2016-10-16T01:08:00Z,0000380,00000600,0004.22,0001.92,0001.21,0000.75,0000.16,0000.16,0000.13,0000.07,0000.33,26.5,01.9,0664.7,34.7
2016-10-16T01:09:00Z,0000380,00000600,0003.75,0002.56,0001.89,-000.02,0000.36,0000.35,0000.30,0000.21,0000.22,26.5,01.9,0664.7,34.7
2016-10-16T01:10:00Z,0000380,00000600,0003.62,0002.89,0001.16,0000.10,0000.43,0000.65,0000.07,0000.08,-000.03,26.5,01.9,0664.7,34.7
2016-10-16T01:11:00Z,0000380,00000600,0004.60,0002.62,0001.58,0000.25,0000.24,0000.49,0000.32,0000.25,0000.34,26.5,01.9,0664.7,34.7
2016-10-16T01:12:00Z,0000380,00000600,0004.35,0002.22,0001.32,-000.08,0000.16,0000.27,0000.19,0000.34,0000.08,26.5,02.0,0664.7,34.7
2016-10-16T01:13:00Z,0000380,00000600,0003.31,0001.92,0001.55,0000.40,0000.40,0000.18,0000.01,0000.18,0000.25,26.5,02.0,0664.7,34.7
2016-10-16T01:14:00Z,0000380,00000600,0003.22,0002.56,0001.17,0000.87,-000.22,0000.21,0000.51,0000.23,0000.05,26.5,02.0,0664.7,34.7
2016-10-16T01:15:00Z,0000380,00000600,0004.05,0002.22,0001.49,0000.14,0000.57,0000.56,-000.04,0000.04,0000.16,26.5,02.1,0664.7,34.7
2016-10-16T01:16:00Z,0000380,00000600,0004.06,0002.10,0001.26,0000.22,0000.41,0000.30,0000.25,0000.45,0000.49,26.5,02.0,0664.7,34.7
2016-10-16T01:17:00Z,0000380,00000600,0003.79,0002.79,0000.98,0000.62,0000.32,0000.22,0000.55,0000.08,-000.24,26.5,02.0,0664.7,34.7
2016-10-16T01:18:00Z,0000380,00000600,0003.96,0002.11,0001.26,0000.73,0000.11,-000.02,-000.04,0000.09,0000.55,26.5,02.0,0664.7,34.7
2016-10-16T01:19:00Z,0000380,00000600,0003.16,0001.97,0001.11,0000.19,0000.25,0000.11,0000.22,0000.19,-000.48,26.5,01.9,0664.7,34.7
2016-10-16T01:20:00Z,0000380,00000600,0003.91,0002.29,0001.10,0000.24,0000.17,0000.19,0000.11,0000.21,0000.42,26.5,02.0,0664.7,34.7
2016-10-16T01:21:00Z,0000380,00000600,0004.18,0002.59,0001.96,0000.72,0000.41,0000.24,0000.23,0000.08,-000.27,26.5,02.0,0664.7,34.7
2016-10-16T01:22:00Z,0000380,00000600,0005.16,0002.10,0001.19,0000.06,0000.30,0000.18,0000.30,0000.48,0000.69,26.5,02.0,0664.6,34.7
2016-10-16T01:23:00Z,0000380,00000600,0003.14,0002.04,0000.88,0000.32,0000.59,0000.05,0000.23,0000.13,-000.12,26.5,02.0,0664.6,34.7
2016-10-16T01:24:00Z,0000380,00000600,0004.61,0001.42,0001.12,0000.21,0000.29,0000.25,0000.10,0000.22,0000.23,26.5,02.0,0664.6,34.7
2016-10-16T01:25:00Z,0000380,00000600,0003.78,0002.58,0001.50,0000.54,0000.25,0000.40,0000.30,0000.25,0000.29,26.6,02.0,0664.5,34.7
2016-10-16T01:26:00Z,0000380,00000600,0002.56,0002.09,0001.48,0000.49,0000.38,0000.19,0000.07,0000.01,0000.28,26.6,02.0,0664.6,34.7
2016-10-16T01:27:00Z,0000380,00000600,0003.54,0001.50,0001.02,0000.37,0000.59,0000.02,0000.17,0000.28,-000.15,26.6,02.1,0664.6,34.7
2016-10-16T01:28:00Z,0000380,00000600,0002.97,0001.71,0001.41,-000.72,0000.22,0000.38,0000.41,0000.12,0000.32,26.6,02.0,0664.6,34.7
2016-10-16T01:29:00Z,0000380,00000600,0004.37,0002.39,0001.45,0000.33,0000.33,0000.40,0000.14,0000.29,0000.45,26.7,02.1,0664.6,34.7
2016-10-16T01:30:00Z,0000380,00000600,0003.84,0001.90,0001.54,0000.43,0000.08,0000.19,0000.18,0000.10,-000.31,26.7,02.0,0664.6,34.8
2016-10-16T01:31:00Z,0000380,00000600,0003.78,0002.32,0001.02,0000.19,0000.32,-000.24,0000.31,0000.20,0000.51,26.7,02.0,0664.6,34.8
2016-10-16T01:32:00Z,0000380,00000600,0003.50,0002.10,0001.45,0000.27,0000.35,0000.41,-000.08,0000.10,-000.21,26.7,02.1,0664.6,34.8
2016-10-16T01:33:00Z,0000380,00000600,0004.10,0002.16,0001.60,0000.06,0000.24,0000.11,0000.36,0000.21,0000.26,26.7,02.0,0664.6,34.8
2016-10-16T01:34:00Z,0000380,00000600,0003.86,0001.59,0001.21,0000.41,-000.08,-000.11,-000.02,0000.20,0000.04,26.7,02.0,0664.6,34.8
2016-10-16T01:35:00Z,0000380,00000600,0003.88,0002.02,0001.24,0000.13,0000.33,0000.14,0000.26,0000.14,0000.20,26.8,02.0,0664.6,34.8
2016-10-16T01:36:00Z,0000380,00000600,0003.70,0002.78,0000.46,0000.41,0000.11,0000.46,0000.18,0000.04,-000.27,26.8,02.0,0664.6,34.8
2016-10-16T01:37:00Z,0000380,00000600,0002.83,0002.07,0001.41,0001.18,0000.14,0000.54,0000.21,0000.15,0000.73,26.8,01.9,0664.6,34.8
2016-10-16T01:38:00Z,0000380,00000600,0004.23,0002.20,0001.10,0000.06,0000.70,0000.35,0000.20,0000.15,-000.42,26.8,01.9,0664.6,34.8
2016-10-16T01:39:00Z,0000380,00000600,0003.71,0003.15,0001.06,0000.45,0000.41,0000.62,-000.01,0000.22,0000.30,26.8,01.9,0664.6,34.8
2016-10-16T01:40:00Z,0000380,00000600,0003.03,0002.22,0000.91,0000.41,0000.29,0000.26,0000.29,0000.12,0000.13,26.8,01.8,0664.6,34.8
2016-10-16T01:41:00Z,0000380,00000600,0003.41,0002.18,0001.33,0000.94,-000.13,0000.43,0000.12,0000.23,0000.27,26.8,01.8,0664.6,34.8
2016-10-16T01:42:00Z,0000380,00000600,0003.76,0002.40,0001.37,0000.37,0000.51,0000.21,0000.17,0000.23,-000.18,26.8,01.8,0664.6,34.8
2016-10-16T01:43:00Z,0000380,00000600,0003.62,0002.63,0001.43,-000.49,0000.48,0000.29,0000.15,0000.10,0000.34,26.8,01.8,0664.6,34.8
2016-10-16T01:44:00Z,0000380,00000600,0004.33,0002.33,0001.71,0000.68,0000.57,0000.37,0000.36,0000.27,-000.07,26.8,01.8,0664.6,34.8
2016-10-16T01:45:00Z,0000380,00000600,0004.17,0003.18,0001.42,0000.24,0000.94,0000.56,0000.18,-000.09,0000.13,26.8,01.7,0664.6,34.8
2016-10-16T01:46:00Z,0000380,00000600,0003.59,0002.12,0001.23,0000.21,0000.10,0000.38,0000.11,0000.35,0000.26,26.9,01.8,0664.6,34.8
2016-10-16T01:47:00Z,0000380,00000600,0002.87,0001.94,0001.44,0000.02,0000.14,0000.29,0000.24,0000.10,0000.07,26.9,01.7,0664.6,34.8
2016-10-16T01:48:00Z,0000380,00000600,0004.81,0002.20,0001.37,0000.51,0000.27,0000.13,0000.41,0000.21,0000.29,26.9,01.7,0664.6,34.8
2016-10-16T01:49:00Z,0000380,00000600,0003.94,0002.22,0001.04,0000.11,0000.41,0000.35,-000.08,0000.09,0000.14,26.9,01.7,0664.6,34.8
2016-10-16T01:50:00Z,0000380,00000600,0003.90,0002.65,0001.15,-000.33,0000.52,0000.33,0000.23,0000.29,-000.12,27.0,01.6,0664.6,34.8
2016-10-16T01:51:00Z,0000380,00000600,0004.23,0002.01,0001.10,0000.61,-000.02,0000.51,0000.22,0000.03,0000.46,26.9,01.6,0664.7,34.8
2016-10-16T01:52:00Z,0000380,00000600,0002.86,0002.61,0000.79,-000.14,0000.08,0000.16,0000.04,0000.17,-000.03,27.0,01.5,0664.7,34.8
2016-10-16T01:53:00Z,0000380,00000600,0003.78,0002.32,0001.12,0000.65,0000.67,0000.27,0000.31,0000.24,0000.00,27.0,01.6,0664.7,34.8
2016-10-16T01:54:00Z,0000380,00000600,0003.43,0002.99,0001.09,-000.40,0000.05,0000.70,0000.07,0000.32,-000.15,27.0,01.5,0664.7,34.8
2016-10-16T01:55:00Z,0000380,00000600,0003.89,0002.76,0001.65,0000.59,0000.56,0000.33,0000.41,-000.06,0000.42,27.0,01.5,0664.7,34.8
2016-10-16T01:56:00Z,0000380,00000600,0004.15,0002.36,0001.23,0000.19,0000.44,0000.33,0000.17,0000.16,-000.13,27.0,01.5,0664.7,34.8
2016-10-16T01:57:00Z,0000380,40000600,,,,,,,,,,,,0664.7,34.8
2016-10-16T01:58:00Z,0000380,60000600,,,,,,,,,,27.0,01.7,0663.7,34.8
2016-10-16T01:59:00Z,0000380,20000600,,,,,,,,,,27.0,01.6,0663.7,34.8
2016-10-16T02:00:00Z,0000380,20000600,,,,,,,,,,27.0,01.5,0663.7,34.8
2016-10-16T02:01:00Z,0000380,20000600,,,,,,,,,,27.0,01.5,0663.7,34.8
2016-10-16T02:02:00Z,0000380,20000600,,,,,,,,,,27.0,01.5,0663.6,34.8
2016-10-16T02:03:00Z,0000380,60000600,,,,,,,,,,27.0,01.5,0663.6,34.8
2016-10-16T02:04:00Z,0000380,40000600,0002.32,0002.63,0001.17,0000.96,0000.16,0000.32,0000.24,0000.29,0000.22,27.1,01.6,0664.6,34.8
2016-10-16T02:05:00Z,0000380,00000600,0003.42,0002.70,0001.10,0000.69,0000.40,0000.02,0000.32,0000.02,-000.03,27.1,01.7,0664.6,34.8
2016-10-16T02:06:00Z,0000380,00000600,0004.73,0002.29,0000.18,0000.97,0000.17,0000.13,0000.60,0000.18,-000.01,27.1,01.6,0664.7,34.8
2016-10-16T02:07:00Z,0000380,00000600,0005.02,0002.49,0000.48,0000.56,0000.37,-000.05,-000.11,0000.29,0000.67,27.1,01.6,0664.6,34.8
2016-10-16T02:08:00Z,0000380,00000600,0003.96,0002.44,0000.92,0000.49,0000.02,-000.29,0000.10,-000.05,-000.24,27.1,01.6,0664.6,34.8
2016-10-16T02:09:00Z,0000380,00000600,0004.24,0002.70,0001.03,0000.38,0000.37,0000.21,0000.67,0000.46,0000.26,27.1,01.7,0664.6,34.8
2016-10-16T02:10:00Z,0000380,00000600,0003.13,0002.43,0001.00,-000.27,0000.40,-000.11,0000.14,-000.07,0000.55,27.1,01.8,0664.7,34.8
2016-10-16T02:11:00Z,0000380,00000600,0003.32,0002.66,0001.25,0000.70,0000.33,0000.00,0000.18,0000.41,0000.21,27.1,01.6,0664.7,34.8
2016-10-16T02:12:00Z,0000380,00000600,0003.22,0002.68,0001.20,0000.69,0000.57,0000.37,0000.15,0000.23,-000.11,27.1,01.7,0664.7,34.8
2016-10-16T02:13:00Z,0000380,00000600,0004.11,0002.22,0000.90,0000.91,-000.06,0000.26,0000.51,0000.14,0000.08,27.0,01.7,0664.7,34.8
2016-10-16T02:14:00Z,0000380,00000600,0003.58,0003.05,0000.45,0001.10,0000.62,-000.08,0000.17,0000.08,0000.27,27.0,01.7,0664.7,34.8
2016-10-16T02:15:00Z,0000380,00000600,0004.42,0002.31,0000.62,0000.88,0000.38,0000.18,0000.12,0000.38,0000.28,27.0,01.7,0664.7,34.7
2016-10-16T02:16:00Z,0000380,00000600,0003.92,0001.99,0001.17,0000.06,0000.54,0000.27,0000.10,-000.01,-000.05,27.0,01.8,0664.6,34.7
2016-10-16T02:17:00Z,0000380,00000600,0003.29,0002.73,0000.24,0000.46,0000.10,0000.29,0000.38,0000.16,0000.20,27.0,01.7,0664.6,34.7
2016-10-16T02:18:00Z,0000380,00000600,0003.03,0002.70,0000.89,0001.50,0000.43,0000.29,0000.14,0000.13,-000.05,27.0,01.8,0664.6,34.7
2016-10-16T02:19:00Z,0000380,00000600,0003.26,0001.99,0000.62,0000.48,0000.03,-000.05,0000.48,0000.32,0000.64,26.9,01.8,0664.6,34.7
2016-10-16T02:20:00Z,0000380,00000600,0003.18,0002.36,0001.02,0000.70,0000.14,0000.24,0000.29,0000.19,-000.27,26.9,01.8,0664.5,34.7
2016-10-16T02:21:00Z,0000380,00000600,0002.94,0002.30,0000.99,0001.04,-000.03,0000.41,0000.15,0000.15,0000.18,26.9,01.9,0664.5,34.7
2016-10-16T02:22:00Z,0000380,00000600,0004.11,0002.37,0001.46,0000.49,0000.78,0000.19,0000.40,0000.33,0000.26,26.8,01.9,0664.5,34.7
2016-10-16T02:23:00Z,0000380,00000600,0003.44,0001.72,0001.41,0000.88,0000.70,0000.03,0000.10,0000.22,0000.29,26.8,02.0,0664.5,34.7
2016-10-16T02:24:00Z,0000380,00000600,0003.96,0002.09,0001.03,0000.14,0000.63,-000.10,0000.14,0000.35,0000.20,26.8,02.0,0664.5,34.7
2016-10-16T02:25:00Z,0000380,00000600,0003.14,0002.21,0000.94,-000.08,0000.65,0000.43,0000.33,0000.19,0000.02,26.8,02.1,0664.5,34.7
2016-10-16T02:26:00Z,0000380,00000600,0004.18,0002.38,0000.86,0001.02,0000.10,-000.26,0000.23,0000.24,0000.08,26.8,02.2,0664.4,34.7
2016-10-16T02:27:00Z,0000380,00000600,0002.99,0002.24,0001.12,0000.13,0000.49,0000.27,0000.26,0000.11,0000.51,26.8,02.2,0664.4,34.7
2016-10-16T02:28:00Z,0000380,00000600,0002.59,0002.76,0001.25,0000.57,0000.17,0000.37,0000.24,0000.38,-000.04,26.8,02.2,0664.4,34.7
2016-10-16T02:29:00Z,0000380,00000600,0002.97,0002.80,0000.75,0000.49,0000.48,0000.10,-000.05,0000.06,0000.46,26.8,02.3,0664.4,34.7
2016-10-16T02:30:00Z,0000380,00000600,0002.73,0001.97,0000.63,0000.48,0000.02,0000.08,0000.08,0000.16,0000.01,26.8,02.2,0664.4,34.7
2016-10-16T02:31:00Z,0000380,00000600,0003.13,0001.77,0000.49,0000.64,0000.24,0000.08,0000.53,0000.12,0000.36,26.8,02.3,0664.4,34.7
2016-10-16T02:32:00Z,0000380,00000600,0003.55,0002.54,0000.68,0000.76,0000.19,-000.21,-000.02,0000.44,0000.05,26.8,02.3,0664.3,34.7
2016-10-16T02:33:00Z,0000380,00000600,0003.31,0002.21,0001.17,0000.65,0000.49,0000.48,0000.24,0000.04,0000.14,26.8,02.3,0664.3,34.7
2016-10-16T02:34:00Z,0000380,00000600,0002.54,0002.39,0000.94,0000.61,0000.36,0000.18,0000.21,0000.22,0000.27,26.8,02.2,0664.3,34.7
2016-10-16T02:35:00Z,0000380,00000600,0003.21,0001.70,0000.84,0000.56,0000.16,0000.27,0000.27,0000.19,-000.02,26.8,02.2,0664.3,34.7
2016-10-16T02:36:00Z,0000380,00000600,0002.64,0001.62,0000.24,0000.41,0000.48,0000.22,0000.02,0000.07,0000.02,26.8,02.3,0664.3,34.7
2016-10-16T02:37:00Z,0000380,00000600,0002.82,0001.66,0001.13,0000.70,0000.08,0000.37,0000.29,0000.14,0000.38,26.8,02.3,0664.3,34.7
2016-10-16T02:38:00Z,0000380,00000600,0003.20,0002.25,0000.19,0000.73,0000.27,0000.10,0000.21,0000.09,-000.06,26.8,02.3,0664.3,34.7
2016-10-16T02:39:00Z,0000380,00000600,0003.49,0002.40,0000.59,0000.76,-000.10,0000.03,0000.04,0000.32,0000.16,26.9,02.3,0664.3,34.7
2016-10-16T02:40:00Z,0000380,00000600,0002.23,0001.76,0000.35,0000.76,0000.00,-000.26,0000.09,0000.05,0000.35,26.9,02.3,0664.3,34.7
2016-10-16T02:41:00Z,0000380,00000600,0001.89,0002.18,0000.53,0000.41,0000.02,0000.16,0000.23,0000.25,-000.11,26.9,02.3,0664.3,34.7
2016-10-16T02:42:00Z,0000380,00000600,0003.40,0002.50,0000.51,0000.65,0000.44,-000.10,0000.10,0000.14,0000.27,27.0,02.3,0664.3,34.7
2016-10-16T02:43:00Z,0000380,00000600,0002.96,0001.71,0000.52,-000.08,0000.38,0000.11,0000.37,0000.11,-000.14,27.0,02.2,0664.3,34.7
2016-10-16T02:44:00Z,0000380,00000600,0002.69,0002.52,0000.49,0001.05,0000.22,0000.05,0000.15,0000.06,0000.43,27.0,02.2,0664.3,34.7
2016-10-16T02:45:00Z,0000380,00000600,0003.79,0001.74,0000.85,0000.91,0000.21,0000.06,-000.02,0000.15,0000.10,27.0,02.2,0664.3,34.8
2016-10-16T02:46:00Z,0000380,00000600,0003.24,0001.81,0001.04,0000.62,0000.38,0000.14,0000.05,0000.16,-000.23,27.0,02.1,0664.3,34.8
2016-10-16T02:47:00Z,0000380,00000600,0002.43,0002.07,0000.32,0000.49,0000.38,0000.14,0000.18,-000.02,0000.05,27.0,01.9,0664.4,34.8
2016-10-16T02:48:00Z,0000380,00000600,0003.56,0002.24,0000.98,0000.16,0000.05,-000.05,0000.29,0000.15,0000.15,27.0,01.8,0664.4,34.8
2016-10-16T02:49:00Z,0000380,00000600,0003.18,0003.01,0000.77,0000.84,0000.63,0000.14,0000.15,-000.14,-000.20,27.0,01.8,0664.4,34.8
2016-10-16T02:50:00Z,0000380,00000600,0003.61,0002.63,0000.75,0000.67,0000.32,0000.32,0000.14,0000.26,0000.54,27.0,01.7,0664.4,34.8
2016-10-16T02:51:00Z,0000380,00000600,0003.51,0002.94,0000.95,0000.72,0000.70,0000.26,0000.03,-000.10,-000.81,27.0,01.6,0664.4,34.8
2016-10-16T02:52:00Z,0000380,00000600,0003.80,0001.98,0000.56,0001.04,0000.40,0000.33,0000.20,0000.10,0000.54,26.9,01.5,0664.4,34.8
2016-10-16T02:53:00Z,0000380,00000600,0002.60,0002.13,0000.71,0001.23,0000.25,0000.32,0000.25,0000.04,0000.06,26.9,01.5,0664.4,34.8
2016-10-16T02:54:00Z,0000380,00000600,0004.06,0002.01,0000.93,0000.83,0000.14,0000.02,0000.04,0000.00,-000.18,26.9,01.4,0664.3,34.8
2016-10-16T02:55:00Z,0000380,01000600,0004.03,0002.60,0000.66,0001.04,0000.48,0000.10,0000.30,0000.31,0000.22,26.9,01.4,0664.3,34.8
2016-10-16T02:56:00Z,0000380,01000600,0003.67,0003.07,0000.90,0000.99,0000.25,-000.02,0000.21,-000.11,-000.12,26.8,01.3,0664.3,34.8
2016-10-16T02:57:00Z,0000380,40000600,,,,,,,,,,,,0664.3,34.8
2016-10-16T02:58:00Z,0000380,60000600,,,,,,,,,,26.7,01.4,0663.2,34.8
2016-10-16T02:59:00Z,0000380,20000600,,,,,,,,,,26.7,01.3,0663.2,34.8
2016-10-16T03:00:00Z,0000380,20000600,,,,,,,,,,26.7,01.2,0663.2,34.7
2016-10-16T03:01:00Z,0000380,20000600,,,,,,,,,,26.7,01.1,0663.2,34.7
2016-10-16T03:02:00Z,0000380,20000600,,,,,,,,,,26.7,01.1,0663.2,34.7
2016-10-16T03:03:00Z,0000380,60000600,,,,,,,,,,26.7,01.1,0663.2,34.7
2016-10-16T03:04:00Z,0000380,41000600,0003.08,0002.58,0001.64,0000.65,0000.14,0000.49,0000.24,0000.12,-000.18,26.8,00.9,0664.1,34.7
2016-10-16T03:05:00Z,0000380,01000600,0003.30,0003.15,0001.72,0000.40,0000.84,0000.64,0000.13,0000.19,0000.25,26.8,01.0,0664.2,34.7
2016-10-16T03:06:00Z,0000380,01000600,0003.18,0002.94,0001.87,0000.16,0000.57,0000.38,0000.22,0000.32,0000.18,26.8,00.9,0664.2,34.7
2016-10-16T03:07:00Z,0000380,01000600,0003.14,0002.98,0001.31,0000.92,0000.35,0000.38,0000.12,0000.17,-000.15,26.8,00.9,0664.2,34.7
2016-10-16T03:08:00Z,0000380,01000600,0004.60,0002.97,0001.01,-000.05,0000.43,-000.14,0000.50,0000.22,0000.06,26.8,00.9,0664.3,34.7
2016-10-16T03:09:00Z,0000380,01000600,0003.93,0003.21,0001.40,0001.23,0000.46,0000.24,0000.20,0000.20,0000.37,26.8,00.9,0664.2,34.7
2016-10-16T03:10:00Z,0000380,01000600,0003.47,0002.91,0001.24,0000.38,0000.51,0000.19,0000.08,0000.48,0000.23,26.8,01.0,0664.2,34.7
2016-10-16T03:11:00Z,0000380,01000600,0003.45,0002.26,0001.25,0000.57,0000.14,0000.49,0000.32,-000.01,0000.21,26.8,01.0,0664.2,34.7
2016-10-16T03:12:00Z,0000380,01000600,0003.49,0002.57,0001.46,0000.48,0000.79,-000.06,-000.03,0000.16,-000.00,26.8,01.0,0664.2,34.7